Regional Weather Roundup
Issued by NWS

Home | Current Version | Previous Version | Text Only | Print | Product List | Glossary Off
Versions: 1 2 3 4 5 6 7 8 9 10 11 12 13 14 15 16 17 18 19 20 21 22 23 24 25 26 27 28 29 30 31 32 33 34 35 36 37 38 39 40 41 42 43 44 45 46 47 48 49 50

000
ASUS43 KFSD 301602
RWRSD

WEATHER ROUNDUP FOR SOUTH DAKOTA
NATIONAL WEATHER SERVICE SIOUX FALLS SD
1100 AM CDT MON MAY 30 2016

NOTE: "FAIR" INDICATES FEW OR NO CLOUDS BELOW 12,000 FEET WITH NO
SIGNIFICANT WEATHER AND/OR OBSTRUCTIONS TO VISIBILITY.


SDZ001>005-009-010-012>017-301700-
NORTHWEST AND NORTH CENTRAL SOUTH DAKOTA

CITY           SKY/WX    TMP DP  RH WIND       PRES   REMARKS
BUFFALO          N/A     66  55  67 NE10      29.82F
FAITH            N/A     67  55  65 S15       29.84S
MOBRIDGE       CLOUDY    73  58  59 S13       29.84F
$$

SDZ012>016-024>037-041>051-057-063-072>074-301700-
SOUTHWEST AND SOUTH CENTRAL SOUTH DAKOTA

CITY           SKY/WX    TMP DP  RH WIND       PRES   REMARKS
RAPID CTY ARPT CLOUDY    69  56  62 SE6       29.85F
PIERRE         MOSUNNY   72  55  55 S22G29    29.86F
CUSTER         SUNNY     61  39  44 W7        29.98F
ELLSWORTH AFB  CLOUDY    74  51  44 SW5       29.84F
PHILIP         MOSUNNY   73  56  54 SE20G25   29.85F
PINE RIDGE     CLOUDY    72  48  42 W12       29.90F
WINNER         FAIR      72  58  61 SE16      29.91F
$$

SDZ004>011-016>023-039-040-301700-
NORTHEAST SOUTH DAKOTA

CITY           SKY/WX    TMP DP  RH WIND       PRES   REMARKS
ABERDEEN       CLOUDY    77  55  46 S3        29.91F
WATERTOWN      MOSUNNY   74  55  51 S16       29.96S
BROOKINGS      MOSUNNY   72  57  59 S12       29.97F
SISSETON         N/A     82  44  26 S14       29.91F
$$

SDZ017-020-022-023-036>040-048>070-301700-
SOUTHEAST SOUTH DAKOTA

CITY           SKY/WX    TMP DP  RH WIND       PRES   REMARKS
SIOUX FALLS    PTSUNNY   74  55  51 S15G24    29.98F
HURON          CLOUDY    72  59  63 S16G25    29.91F
MITCHELL       CLOUDY    72  57  59 SE23G31   29.95F
YANKTON        CLOUDY    73  57  56 S10       29.95F
$$

ABBREVIATIONS USED IN REMARKS
   TC - TEMPERATURE IN CELSIUS
  WCI - WIND CHILL INDEX
   HX - HEAT INDEX
  VSB - VISIBILITY





USA.gov is the U.S. government's official web portal to all federal, state and local government web resources and services.